Home   Weather   Fürstenfeld   Past weeks

Flag for Austria Past Weather in Fürstenfeld, Styria, Austria — Yesterday and Last 2 Weeks

Now
39 °F

Chilly.


Feels Like: 39 °F
Forecast: 38 / 56 °F
Wind: 1 mph from East

Location: Murska Sobota

Current Time: Feb 22, 2017 at 2:43:12 am

Latest Report: Feb 22, 2017 at 2:00 am


Visibility: N/A

Pressure: 30.05 "Hg

Humidity: 90%

Dew Point: 36 °F

Location of FürstenfeldLocation

Past Weather in Fürstenfeld — Graph

°F

Fürstenfeld Temperature Yesterday

Maximum temperature yesterday: 50 °F (at 2:00 pm)
Minimum temperature yesterday: 31 °F (at 1:00 am)
Average temperature yesterday: 40 °F

High & Low Weather Summary for the Past Weeks

 TemperatureHumidityPressure
High52 °F (Feb 15, 4:00 pm)98% (Feb 18, 7:00 am)30.66 "Hg (Feb 18, 7:00 am)
Low22 °F (Feb 14, 7:00 am)49% (Feb 19, 3:00 pm)29.90 "Hg (Feb 21, 2:00 pm)
Average34 °F82%30.35 "Hg
* Reported Feb 7 1:00 am — Feb 22 1:00 am, Fürstenfeld, Weather by CustomWeather, © 2017

Note: Actual official high and low records may vary slightly from our data, if they occured in-between our weather recording intervals... More about our weather records

Advertising

Fürstenfeld Weather History for the Previous 24 Hours

Scroll right to see more
 ConditionsComfort  
Time TempWeatherWind HumidityBarometerVisibility
1:00 am
Wed, Feb 22
39 °FChilly.1 mph89%30.04 "HgN/A
12:00 am39 °FChilly.1 mph89%30.04 "HgN/A
11:00 pm
Tue, Feb 21
41 °FQuite cool.1 mph83%30.02 "HgN/A
10:00 pm42 °FQuite cool.No wind82%30.02 "HgN/A
9:00 pm41 °FQuite cool.1 mph84%30.00 "HgN/A
8:00 pm41 °FQuite cool.1 mph86%29.98 "HgN/A
7:00 pm43 °FFog.No wind80%29.98 "Hg5 mi
6:00 pm44 °FQuite cool.1 mph79%29.96 "HgN/A
5:00 pm47 °FCool.1 mph69%29.94 "HgN/A
4:00 pm48 °FCool.1 mph65%29.92 "HgN/A
3:00 pm48 °FCool.1 mph70%29.91 "HgN/A
2:00 pm50 °FPartly sunny.2 mph62%29.90 "Hg6 mi
1:00 pm44 °FPartly sunny.No wind80%29.93 "Hg6 mi
12:00 pm44 °FQuite cool.No wind78%29.95 "HgN/A
11:00 am44 °FQuite cool.2 mph75%29.95 "HgN/A
10:00 am44 °FQuite cool.1 mph76%29.96 "HgN/A
9:00 am41 °FQuite cool.1 mph85%29.97 "HgN/A
8:00 am36 °FFog.1 mph91%29.98 "Hg2 mi
7:00 am35 °FFog.No wind92%29.99 "Hg2 mi
6:00 am35 °FChilly.1 mph92%29.98 "HgN/A
5:00 am35 °FChilly.No wind90%30.00 "HgN/A
4:00 am35 °FChilly.No wind91%30.02 "HgN/A
3:00 am34 °FChilly.3 mph91%30.04 "HgN/A
2:00 am32 °FChilly.1 mph94%30.06 "HgN/A
Weather by CustomWeather, © 2017

See weather overviewHow to use our weather pages